Simultaneous Nadir Overpasses (SNOs) Predictions

Prediction of SNOs between AQUA and NPP Satellite Orbit:

Table of predicted SNOs for the next 14.0 days since TLE Epoch: 2/9/2018
Index Date (AQUA) Time (AQUA) Lat,Lon (AQUA) SZA (AQUA ) Date (NPP) Time (NPP) Lat,Lon (NPP) SZA (NPP ) Distance(km) Time Diff (sec)
1 02/09/2018 22:38:21 -76.68, -98.17 68.77 02/09/2018 22:38:03 -76.68, -98.14 68.76 1.06 18
2 02/09/2018 23:27:33 77.31, 71.84 110.46 02/09/2018 23:28:33 77.30, 71.76 110.43 2.33 60
3 02/12/2018 14:05:40 75.85,-152.62 111.34 02/12/2018 14:04:28 75.84,-152.65 111.41 0.78 72
4 02/12/2018 14:54:42 -77.07, 19.15 70.10 02/12/2018 14:54:46 -77.08, 19.26 70.13 2.87 4
5 02/15/2018 06:22:00 76.35, -35.17 109.88 02/15/2018 06:21:10 76.35, -35.11 109.91 1.61 50
6 02/15/2018 07:11:12 -77.09, 135.10 71.02 02/15/2018 07:11:39 -77.09, 135.07 71.03 0.80 27
7 02/17/2018 22:38:28 76.45, 81.06 108.84 02/17/2018 22:38:01 76.44, 81.01 108.87 1.41 27
8 02/17/2018 23:27:34 -77.47,-107.53 72.40 02/17/2018 23:28:23 -77.48,-107.45 72.46 2.02 49
9 02/20/2018 14:54:47 76.97,-161.21 107.27 02/20/2018 14:54:42 76.98,-161.14 107.26 1.93 5
10 02/20/2018 15:44:02 -77.57, 8.76 73.47 02/20/2018 15:45:14 -77.56, 8.73 73.52 0.69 72
11 02/23/2018 06:22:05 -76.30, 144.69 72.90 02/23/2018 06:21:05 -76.31, 144.76 72.87 1.79 60




NCC Satellite Simultaneous Nadir Overpasses (SNOs) Prediction Service
